Regional Weather Roundup
Issued by NWS Cleveland, OH

Home | Current Version | Previous Version | Text Only | Print | Product List | Glossary On
Versions: 1 2 3 4 5 6 7 8 9 10 11 12 13 14 15 16 17 18 19 20 21 22 23 24 25 26 27 28 29 30 31 32 33 34 35 36 37 38 39 40 41 42 43 44 45 46 47 48 49 50
000
ASUS41 KCLE 301210
RWRCLE
OHIO REGIONAL WEATHER ROUNDUP
NATIONAL WEATHER SERVICE CLEVELAND, OH
800 AM EDT SAT MAY 30 2015

NOTE: "FAIR" INDICATES FEW OR NO CLOUDS BELOW 12,000 FEET WITH NO
SIGNIFICANT WEATHER AND/OR OBSTRUCTIONS TO VISIBILITY.

OHZ001>008-015>018-024>027-034-035-043-044-301300-
   NORTHWEST OHIO

CITY           SKY/WX    TMP DP  RH WIND       PRES   REMARKS
DEFIANCE       PTSUNNY   71  65  81 SW8       30.02R
FINDLAY        CLOUDY    72  67  84 S10       30.03S
TOLEDO EXPRESS SUNNY     71  65  81 S9        30.01S
TOLEDO EXEC    MOSUNNY   72  65  78 SW10      30.02S
LIMA           PTSUNNY   71  66  84 SW8       30.05R
$$

OHZ009>014-019>023-028>033-038-089-301300-
   NORTHEAST OHIO

CITY           SKY/WX    TMP DP  RH WIND       PRES   REMARKS
CLE-HOPKINS    CLOUDY    72  65  78 S9        30.07R
CLE-LAKEFRONT  CLOUDY    75  64  68 S16G24    30.04R
CUY CO. ARPT   PTSUNNY   75  66  73 SW9       30.06S
LORAIN-ELYRIA  MOSUNNY   72  66  81 SW10      30.05S
ASHTABULA      MOSUNNY   71  65  81 SW10      30.07S
AKRON-CANTON   CLOUDY    71  64  78 S10       30.10R
WOOSTER        CLOUDY    70  66  87 S9        30.10R
MANSFIELD      MOSUNNY   70  66  87 S8        30.08F
YOUNGSTOWN     PTSUNNY   70  64  81 S7        30.10R
$$

OHZ042-051>053-060>062-070>072-077>081-301300-
  SOUTHWEST OHIO

CITY           SKY/WX    TMP DP  RH WIND       PRES   REMARKS
CINC-COVINGTON PTSUNNY   71  65  81 S7        30.09R
CINC-LUNKEN    CLOUDY    69  66  90 S3        30.09R
HAMILTON       MOSUNNY   74  67  78 SW6       30.08S
DAYTON         MOSUNNY   71  66  84 SW13      30.08S
WRIGHT-PAT AFB SUNNY     72  67  85 S8        30.07S
DAYTON GENERAL SUNNY     70  66  87 S9        30.08R
WILMINGTON     CLOUDY    69  64  84 S8        30.09S
$$

OHZ036-037-039>041-045>050-054>059-063>069-073>076-082>088-301300-
  CENTRAL AND SOUTHEAST OHIO

CITY           SKY/WX    TMP DP  RH WIND       PRES   REMARKS
COLUMBUS       PTSUNNY   72  66  81 S9        30.09R
OSU AIRPORT    MOSUNNY   72  65  78 S10       30.09R
BOLTON FIELD   PTSUNNY   72  66  83 S8        30.09
RICKENBACK AFB MOSUNNY   71  66  84 S7        30.08S
NEWARK         LGT RAIN  71  66  84 S6        30.09S
MARION         MOSUNNY   72  65  78 SW13      30.08R
LANCASTER      PTSUNNY   73  66  78 S8        30.10S
ZANESVILLE     NOT AVBL
NEW PHILLY     PTSUNNY   72  65  78 VRB5      30.11R
$$



USA.gov is the U.S. government's official web portal to all federal, state and local government web resources and services.